This is the latest recevied weather packets stored in our database for station/object DO3HUM-5. If no packets are shown the sender has not sent any weather packets the latest 10 day(s).
| Time | Temp. | Humidity | Pressure | Rain* | Wind** | Luminosity | Snow |
|---|---|---|---|---|---|---|---|
| 1777063269 | 7.22° C | 87% | 1025.1 hPa | 0 mm | - | - | - |
| 1777062667 | 7.22° C | 86% | 1025.2 hPa | 0 mm | - | - | - |
| 1777062064 | 7.78° C | 84% | 1025.2 hPa | 0 mm | - | - | - |
| 1777061461 | 8.33° C | 83% | 1025.2 hPa | 0 mm | - | - | - |
| 1777060859 | 8.33° C | 82% | 1025.2 hPa | 0 mm | - | - | - |
| 1777060256 | 8.89° C | 81% | 1025.2 hPa | 0 mm | - | - | - |
| 1777059653 | 9.44° C | 79% | 1025.3 hPa | 0 mm | - | - | - |
| 1777059051 | 10° C | 77% | 1025.1 hPa | 0 mm | - | - | - |
| 1777058447 | 10° C | 77% | 1025.3 hPa | 0 mm | - | - | - |
| 1777057844 | 9.44° C | 79% | 1025.3 hPa | 0 mm | - | - | - |
| 1777057242 | 10° C | 78% | 1025.2 hPa | 0 mm | - | - | - |
| 1777056641 | 10.56° C | 76% | 1025.1 hPa | 0 mm | - | - | - |
| 1777056038 | 10.56° C | 75% | 1025.2 hPa | 0 mm | - | - | - |
| 1777055433 | 10.56° C | 75% | 1025.2 hPa | 0 mm | - | - | - |
| 1777054830 | 11.11° C | 73% | 1025.3 hPa | 0 mm | - | - | - |
| 1777054228 | 11.67° C | 71% | 1025.2 hPa | 0 mm | - | - | - |
| 1777053624 | 12.22° C | 70% | 1025.1 hPa | 0 mm | - | - | - |
| 1777053020 | 12.78° C | 68% | 1025.2 hPa | 0 mm | - | - | - |
| 1777052418 | 12.78° C | 68% | 1025.2 hPa | 0 mm | - | - | - |
| 1777051875 | 13.33° C | 66% | 1025.3 hPa | 0 mm | - | - | - |
| 1777051267 | 13.33° C | 66% | 1025.3 hPa | 0 mm | - | - | - |
| 1777050666 | 13.33° C | 67% | 1025.3 hPa | 0 mm | - | - | - |
| 1777050062 | 13.89° C | 66% | 1025.4 hPa | 0 mm | - | - | - |
| 1777049461 | 13.89° C | 66% | 1025.4 hPa | 0 mm | - | - | - |
| 1777048858 | 14.44° C | 65% | 1025.4 hPa | 0 mm | - | - | - |
* Rain latest hour (hover to see other rain measurements)
** Current wind speed in m/s (hover to see current wind gust speed)